Flag for Germany Weather past 2 weeks in Velbert, North Rhine-Westphalia, Germany

Now
43 °F

Overcast.


Feels Like: 40 °F
Forecast: 28 / 44 °F
Wind: 6 mph from North

Location: Essen

Current Time: Feb 27, 2015 at 5:09:30 PM

Latest Report: Feb 27, 2015 at 4:00 PM


Visibility: 25 mi

Pressure: 30.04 "Hg

Humidity: 63%

Dew point: 31 °F

Location of VelbertLocation

Historic Weather in Velbert — Graph

°F

Velbert temperature yesterday

Maximum temperature yesterday: 47 °F (at 3:00 PM)
Minimum temperature yesterday: 36 °F (at 7:00 AM)
Average temperature yesterday: 42 °F

Past Weeks' High & Low Weather Summary

 TemperatureHumidityPressure
High51 °F (Feb 14, 3:00 PM)100% (Feb 17, 7:00 AM)30.77 "Hg (Feb 17, 7:00 AM)
Low32 °F (Feb 17, 7:00 AM)59% (Feb 13, 3:00 PM)29.35 "Hg (Feb 21, 4:00 AM)
Average38 °F86%29.97 "Hg
* Reported Feb 12 4:00 PM — Feb 27 4:00 PM, Velbert, Weather by CustomWeather, © 2015

Note: Actual official high and low records may vary slightly from our data, if they occured in-between our weather recording intervals... More about our weather records

Advertising

Velbert weather history for previous 24 hours

 ConditionsComfort  
Time TempWeatherWind HumidityBarometerVisibility
4:00 PM
Fri, Feb 27
43 °FOvercast.6 mph63%30.04 "Hg25 mi
3:00 PM43 °FOvercast.6 mph64%30.02 "Hg25 mi
2:00 PM43 °FOvercast.7 mph68%30.00 "Hg22 mi
1:00 PM43 °FOvercast.6 mph77%29.99 "Hg19 mi
12:00 PM41 °FOvercast.5 mph83%29.98 "Hg17 mi
11:00 AM40 °FLow clouds.5 mph90%29.95 "Hg12 mi
10:00 AM40 °FLow clouds.6 mph93%29.93 "Hg9 mi
9:00 AM39 °FLow clouds.6 mph97%29.91 "Hg7 mi
8:00 AM38 °FLight freezing rain. Low clouds.6 mph98%29.88 "Hg11 mi
7:00 AM39 °FLight rain. Low clouds.7 mph97%29.85 "Hg4 mi
6:00 AM39 °FLight rain. Low clouds.7 mph97%29.82 "Hg6 mi
5:00 AM40 °FLight rain. Low clouds.5 mph100%29.79 "Hg4 mi
4:00 AM42 °FLight rain. Low clouds.2 mph100%29.77 "Hg4 mi
3:00 AM42 °FLight rain. Low clouds.3 mph100%29.77 "Hg3 mi
2:00 AM42 °FLight rain. Low clouds.5 mph98%29.77 "Hg3 mi
1:00 AM42 °FLight rain. Low clouds.5 mph98%29.78 "Hg5 mi
12:00 AM42 °FLight rain. Low clouds.6 mph100%29.80 "Hg2 mi
11:00 PM
Thu, Feb 26
42 °FLight freezing rain. Low clouds.6 mph98%29.81 "Hg2 mi
10:00 PM42 °FLow clouds.7 mph94%29.83 "Hg7 mi
9:00 PM44 °FLow clouds.6 mph83%29.85 "Hg14 mi
8:00 PM45 °FOvercast.6 mph75%29.87 "Hg19 mi
7:00 PM45 °FOvercast.7 mph77%29.88 "Hg22 mi
6:00 PM46 °FOvercast.7 mph73%29.90 "Hg22 mi
5:00 PM47 °FLight rain. Overcast.6 mph72%29.92 "Hg19 mi
Weather by CustomWeather, © 2015

See weather overviewHow to use our weather pages